This is the latest recevied weather packets stored in our database for station/object K5MGY. If no packets are shown the sender has not sent any weather packets the latest 1 day(s).
| Time | Temp. | Humidity | Pressure | Rain* | Wind** | Luminosity | Snow |
|---|---|---|---|---|---|---|---|
| 1778034992 | 22.78° C | 65% | 1031.5 hPa | 0 mm | 0 m/s | 0 W/m² | - |
| 1778034690 | 23.33° C | 66% | 1031.3 hPa | 0 mm | 0.45 m/s, 248° | 0 W/m² | - |
| 1778034387 | 23.33° C | 65% | 1030.9 hPa | 0 mm | 0.45 m/s, 256° | 0 W/m² | - |
| 1778034084 | 23.89° C | 64% | 1030.7 hPa | 0 mm | 0.45 m/s, 257° | 0 W/m² | - |
| 1778033782 | 23.89° C | 64% | 1030.8 hPa | 0 mm | 0 m/s | 0 W/m² | - |
| 1778033479 | 23.89° C | 64% | 1030.5 hPa | 0 mm | 0 m/s | 0 W/m² | - |
| 1778033176 | 23.89° C | 64% | 1030.4 hPa | 0 mm | 0 m/s | 0 W/m² | - |
| 1778032874 | 24.44° C | 64% | 1030.1 hPa | 0 mm | 0 m/s | 0 W/m² | - |
| 1778032571 | 24.44° C | 64% | 1030.2 hPa | 0 mm | 0 m/s | 0 W/m² | - |
| 1778032268 | 24.44° C | 63% | 1030 hPa | 0 mm | 0 m/s | 0 W/m² | - |
| 1778031966 | 25° C | 63% | 1030 hPa | 0 mm | 0.45 m/s, 283° | 0 W/m² | - |
| 1778031661 | 25° C | 63% | 1030 hPa | 0 mm | 0 m/s | 0 W/m² | - |
| 1778031359 | 25.56° C | 62% | 1029.8 hPa | 0 mm | 0.45 m/s, 212° | 0 W/m² | - |
| 1778031055 | 25.56° C | 62% | 1029.6 hPa | 0 mm | 0 m/s | 0 W/m² | - |
| 1778030752 | 25.56° C | 61% | 1029.5 hPa | 0 mm | 0 m/s | 0 W/m² | - |
| 1778030448 | 26.11° C | 61% | 1029.5 hPa | 0 mm | 0 m/s | 0 W/m² | - |
| 1778030147 | 26.11° C | 61% | 1029.5 hPa | 0 mm | 0 m/s | 0 W/m² | - |
| 1778029842 | 26.67° C | 61% | 1029.8 hPa | 0 mm | 0 m/s | 0 W/m² | - |
| 1778029542 | 26.67° C | 60% | 1029.6 hPa | 0 mm | 0 m/s | 1 W/m² | - |
| 1778029238 | 26.67° C | 60% | 1029.4 hPa | 0 mm | 0.45 m/s, 237° | 4 W/m² | - |
| 1778028935 | 26.67° C | 60% | 1029.1 hPa | 0 mm | 0 m/s | 5 W/m² | - |
| 1778028631 | 27.22° C | 58% | 1028.8 hPa | 0 mm | 0 m/s | 6 W/m² | - |
| 1778028329 | 27.22° C | 58% | 1029 hPa | 0 mm | 0 m/s | 5 W/m² | - |
| 1778028025 | 27.22° C | 58% | 1029.3 hPa | 0 mm | 0.45 m/s, 209° | 4 W/m² | - |
| 1778027722 | 27.78° C | 58% | 1028.9 hPa | 0 mm | 0 m/s | 4 W/m² | - |
* Rain latest hour (hover to see other rain measurements)
** Current wind speed in m/s (hover to see current wind gust speed)